[[{"header":{"parameterUnit":"m.s-1","parameterCategory":1,"la1":30.2991,"la2":30.254,"lo1":-89.0895,"lo2":-89.0444,"dy":0.0017,"dx":0.0017,"nx":28,"ny":28,"refTime":"2024-04-16T09:00:00:Z","depth":0,"parameterNumber":2,"parameterNumberName":"U-component_of_WINDS"},"data":[0,0,0,0,0,0,0,0,0,0,0,0,0,0,0,0,0,0,0,0,0,0,0,0,0,0,0,0,0,0,0,0,0,0,0,0,0,0,0,0,0,0,0,0,0,0,0,0,0,0,0,0,0,0,0,0,0,0,-2.9224,-2.9225,0,-2.9361,-2.9362,-2.9364,-2.9413,-2.9413,-2.9412,-2.9412,-2.9555,-2.9559,-2.9563,0,0,0,0,0,0,0,0,0,0,0,0,0,-2.9007,-2.9011,-2.9224,-2.9225,-2.9227,-2.9361,-2.9363,-2.9364,-2.9414,-2.9413,-2.9412,-2.9412,-2.9553,-2.9558,-2.9563,0,0,0,0,0,0,0,0,0,0,0,0,0,-2.9118,-2.9012,-2.9223,-2.9268,-2.9273,-2.936,-2.9363,-2.9365,-2.9414,-2.9413,-2.9412,-2.9411,-2.9552,-2.9558,-2.9564,-2.9618,0,0,-2.9584,-2.9586,0,0,0,0,0,0,0,0,-2.9112,-2.9126,-2.9259,-2.9265,-2.9271,-2.9369,-2.9339,-2.945,-2.9414,-2.936,-2.9412,-2.9411,-2.9494,-2.9505,-2.9532,-2.9625,-2.9631,-2.9584,-2.9588,-2.9591,-2.9593,0,0,0,0,0,0,0,-2.9104,-2.9121,-2.9278,-2.9261,-2.9268,-2.9282,-2.9297,-2.936,-2.943,-2.9365,-2.9369,-2.9384,-2.9497,-2.9526,-2.9536,-2.9633,-2.9584,-2.959,-2.9594,-2.9596,-2.9778,-2.9779,0,0,0,0,0,0,-2.9089,-2.9114,-2.9274,-2.9282,-2.9188,-2.9286,-2.9303,-2.9338,-2.9429,-2.9442,-2.9385,-2.9386,-2.9515,-2.9528,-2.9541,-2.961,-2.9591,-2.9597,-2.96,-2.9777,-2.9778,-2.9779,0,0,0,0,0,0,-2.9084,-2.9103,-2.9268,-2.9199,-2.9221,-2.9291,-2.933,-2.9342,-2.9371,-2.9444,-2.9457,-2.9401,-2.9515,-2.9532,-2.9599,-2.9616,-2.96,-2.9605,-2.9776,-2.9777,-2.9779,-2.9749,0,0,0,0,0,0,-2.9078,-2.9101,-2.9121,-2.9199,-2.9225,-2.9322,-2.9331,-2.9345,-2.9381,-2.9384,-2.9463,-2.9475,-2.9516,-2.9589,-2.9605,-2.9624,-2.961,-2.9774,-2.9776,-2.9778,-2.9749,-2.9749,-2.975,0,0,0,0,0,-2.907,-2.9107,-2.9122,-2.9141,-2.9252,-2.9323,-2.9338,-2.9383,-2.9382,-2.9404,-2.9451,-2.9473,-2.9612,-2.9595,-2.9614,-2.9635,-2.9773,-2.9776,-2.9778,-2.9748,-2.9749,-2.975,0,0,0,0,0,0,-2.903,-2.9118,-2.9135,-2.9199,-2.9253,-2.9331,-2.936,-2.9382,-2.9438,-2.9438,-2.9493,-2.9511,-2.9573,-2.9611,-2.9591,-2.9693,-2.9694,-2.97,-2.9665,-2.9666,-2.9667,-2.9656,-2.9616,0,0,0,0,0,-2.9029,-2.9078,-2.9154,-2.9203,-2.9229,-2.929,-2.9323,-2.9353,-2.9411,-2.9434,-2.9486,-2.9543,-2.9599,-2.9635,-2.9691,-2.9755,-2.9773,-2.9779,-2.978,-2.978,-2.9784,-2.9821,-2.9825,-2.9787,-2.9786,-2.9786,0,0,-2.9026,-2.9081,-2.9109,-2.9196,-2.9242,-2.9293,-2.9308,-2.9362,-2.9401,-2.9443,-2.9508,-2.9549,-2.9616,-2.9681,-2.9712,-2.9715,-2.9799,-2.9783,-2.9782,-2.9787,-2.9824,-2.9827,-2.983,-2.9788,-2.9788,-2.9788,0,0,-2.9048,-2.9094,-2.9141,-2.9186,-2.9254,-2.9294,-2.9305,-2.938,-2.9408,-2.9475,-2.9508,-2.9556,-2.9652,-2.9698,-2.9734,-2.9775,-2.9797,-2.9792,-2.9794,-2.9829,-2.9832,-2.9835,-2.9849,-2.9854,-2.9796,-2.9796,-2.9796,0,-2.9037,-2.9114,-2.9162,-2.9213,-2.9251,-2.9291,-2.9339,-2.9381,-2.9464,-2.949,-2.9491,-2.9613,-2.9661,-2.9738,-2.9747,-2.9776,-2.979,-2.9782,-2.9828,-2.9831,-2.9835,-2.9849,-2.9854,-2.9795,-2.9795,-2.9795,-2.9795,0,-2.9097,-2.915,-2.9179,-2.9258,-2.9299,-2.9348,-2.9404,-2.9441,-2.9468,-2.9508,-2.9576,-2.9635,-2.9704,-2.9725,-2.9752,-2.9806,-2.9805,-2.9817,-2.9819,-2.9836,-2.985,-2.9856,-2.9793,-2.9793,-2.9794,-2.9794,0,0,-2.9096,-2.9201,-2.921,-2.9247,-2.9325,-2.9368,-2.942,-2.9487,-2.9517,-2.9574,-2.9619,-2.9699,-2.9711,-2.9752,-2.9785,-2.9816,-2.9844,-2.9824,-2.9826,-2.9825,-2.9907,-2.9897,-2.9903,-2.986,-2.9861,-2.9862,-2.9901,0,-2.9127,-2.922,-2.9265,-2.9339,-2.9389,-2.9429,-2.9474,-2.9528,-2.9567,-2.9617,-2.9661,-2.9717,-2.9728,-2.9753,-2.9786,-2.9834,-2.9861,-2.9832,-2.9903,-2.9905,-2.9883,-2.991,-2.99,-2.9933,-2.9907,-2.9908,-2.9909,0,-2.9176,-2.9231,-2.931,-2.9383,-2.9406,-2.9445,-2.951,-2.9557,-2.9619,-2.9646,-2.9692,-2.9725,-2.9782,-2.9781,-2.9861,-2.9839,-2.9872,-2.99,-2.9903,-2.991,-2.9907,-2.9917,-2.9945,-2.995,-2.9918,-2.9917,-2.9917,0,-2.9166,-2.9261,-2.932,-2.935,-2.9437,-2.9464,-2.9502,-2.9564,-2.9601,-2.9659,-2.9684,-2.9747,-2.9782,-2.9831,-2.988,-2.9875,-2.9956,-2.9959,-2.998,-2.9979,-2.9994,-2.9992,-3.0026,-3.0016,-3.0016,-3.0016,-3.0016,0,-2.9196,-2.9242,-2.9317,-2.9353,-2.9407,-2.9459,-2.951,-2.9552,-2.9606,-2.9652,-2.9691,-2.9734,-2.9797,-2.9847,-2.9887,-2.9947,-2.9963,-2.9986,-2.9996,-2.9982,-2.9979,-3.0003,-3.0001,-3.0017,-3.0017,-3.0017,-3.0017,0,-2.9194,-2.9246,-2.9313,-2.939,-2.941,-2.9446,-2.9513,-2.955,-2.9592,-2.965,-2.9666,-2.9733,-2.9794,-2.9849,-2.9931,-2.9957,-3.0019,-3.0031,-2.9997,-3.0002,-3.002,-3.0017,-3.007,-3.0079,-3.0063,-3.0063,-3.0063,0,-2.9209,-2.9245,-2.9326,-2.9359,-2.9396,-2.9449,-2.9487,-2.954,-2.9579,-2.9653,-2.9682,-2.9746,-2.98,-2.9897,-2.9953,-3.0017,-3.003,-3.0045,-3.004,-3.0025,-3.003,-3.0027,-3.0031,-3.0044,-3.0044,-3.0044,-3.0044,0,-2.923,-2.9254,-2.9307,-2.9369,-2.9413,-2.9465,-2.9518,-2.9543,-2.9607,-2.9648,-2.9711,-2.9753,-2.9837,-2.9901,-2.997,-3.0011,-3.0038,-3.0045,-3.0053,-3.0039,-3.0017,-3.0028,-2.9996,-3.0043,-3.0043,-3.0043,-3.0043,-3.0043,-2.9236,-2.927,-2.9332,-2.939,-2.9436,-2.9485,-2.9524,-2.957,-2.9623,-2.9695,-2.9724,-2.9788,-2.9851,-2.9947,-2.9988,-3.004,-3.0044,-3.0056,-3.0059,-3.0061,-3.0058,-3.001,-3.0053,-3.0053,-3.0053,-3.0053,-3.0053,0,-2.9259,-2.9301,-2.9353,-2.9426,-2.9472,-2.9493,-2.9554,-2.9591,-2.9646,-2.9702,-2.9755,-2.9828,-2.989,-2.9951,-3.0017,-3.0047,-3.0061,-3.0062,-3.006,-3.0069,-3.005,-3.0036,-3.005,-3.005,-3.005,-3.005,-3.005,-3.005,-2.9275,-2.9334,-2.9366,-2.9448,-2.949,-2.9552,-2.9585,-2.9631,-2.9676,-2.9755,-2.9806,-2.9846,-2.9905,-2.9975,-3.0033,-3.005,-3.0072,-3.007,-3.009,-3.0071,-3.007,-3.007,-3.0057,-3.0074,-3.0074,-3.0104,-3.0104,-3.0105]},{"header":{"parameterUnit":"m.s-1","parameterCategory":1,"la1":30.2991,"la2":30.254,"lo1":-89.0895,"lo2":-89.0444,"dy":0.0017,"dx":0.0017,"nx":28,"ny":28,"refTime":"2024-04-16T09:00:00:Z","depth":0,"parameterNumber":3,"parameterNumberName":"V-component_of_WINDS"},"data":[0,0,0,0,0,0,0,0,0,0,0,0,0,0,0,0,0,0,0,0,0,0,0,0,0,0,0,0,0,0,0,0,0,0,0,0,0,0,0,0,0,0,0,0,0,0,0,0,0,0,0,0,0,0,0,0,0,0,3.7773,3.7773,0,3.7814,3.7815,3.7815,3.7797,3.7796,3.7795,3.7794,3.7837,3.7839,3.7841,0,0,0,0,0,0,0,0,0,0,0,0,0,3.768,3.7681,3.7773,3.7773,3.7774,3.7814,3.7815,3.7816,3.7797,3.7796,3.7795,3.7794,3.7837,3.7839,3.7842,0,0,0,0,0,0,0,0,0,0,0,0,0,3.7721,3.7682,3.7773,3.777,3.777,3.7814,3.7815,3.7816,3.7797,3.7796,3.7794,3.7793,3.7836,3.7839,3.7842,3.7892,0,0,3.7852,3.7853,0,0,0,0,0,0,0,0,3.7718,3.7724,3.777,3.777,3.777,3.7799,3.7798,3.7841,3.7798,3.7787,3.7794,3.7792,3.7826,3.783,3.7841,3.7894,3.7896,3.7852,3.7854,3.7855,3.7856,0,0,0,0,0,0,0,3.7715,3.7722,3.7789,3.777,3.7771,3.7767,3.7771,3.7806,3.7815,3.7788,3.7787,3.7792,3.7826,3.7838,3.7842,3.7897,3.7852,3.7855,3.7857,3.7858,3.7995,3.7997,0,0,0,0,0,0,3.7712,3.772,3.7788,3.7791,3.774,3.777,3.7774,3.7791,3.7814,3.7816,3.7793,3.7791,3.7833,3.7838,3.7843,3.7904,3.7855,3.7858,3.786,3.7993,3.7995,3.7997,0,0,0,0,0,0,3.7711,3.7719,3.7786,3.7755,3.7763,3.7773,3.7792,3.7793,3.7805,3.7818,3.782,3.7804,3.7832,3.7839,3.788,3.7906,3.7859,3.7862,3.7991,3.7994,3.7996,3.8027,0,0,0,0,0,0,3.7708,3.7718,3.7737,3.7756,3.7765,3.7822,3.7794,3.7795,3.781,3.7808,3.7828,3.783,3.7831,3.7876,3.7884,3.7909,3.7865,3.7989,3.7992,3.7996,3.8023,3.803,3.8036,0,0,0,0,0,3.7705,3.7744,3.7738,3.7746,3.7788,3.7824,3.7829,3.783,3.7813,3.7832,3.784,3.783,3.7902,3.788,3.7889,3.7916,3.7987,3.7992,3.7995,3.8021,3.8029,3.8035,0,0,0,0,0,0,3.7727,3.7746,3.774,3.7786,3.7803,3.7821,3.7845,3.7838,3.7861,3.7857,3.7857,3.7862,3.7905,3.7915,3.789,3.7966,3.7942,3.7948,3.7958,3.7966,3.7972,3.7969,3.7867,0,0,0,0,0,3.7738,3.7765,3.7779,3.7819,3.7828,3.7835,3.785,3.7849,3.7868,3.7875,3.7886,3.7905,3.7932,3.795,3.7975,3.8025,3.803,3.8048,3.8054,3.8059,3.8064,3.8092,3.8101,3.801,3.801,3.801,0,0,3.7759,3.7773,3.779,3.7824,3.7837,3.7866,3.7841,3.7872,3.7893,3.788,3.792,3.7929,3.795,3.7996,3.8017,3.8006,3.809,3.8064,3.8068,3.807,3.8097,3.8106,3.8113,3.8013,3.8012,3.8012,0,0,3.7814,3.7826,3.7861,3.7875,3.7896,3.79,3.7909,3.7928,3.7933,3.7974,3.7964,3.799,3.8036,3.8052,3.8066,3.8128,3.8119,3.8136,3.8168,3.8195,3.8202,3.8209,3.8231,3.8239,3.8141,3.8141,3.8141,0,3.7838,3.788,3.7879,3.7911,3.7927,3.7916,3.7951,3.7966,3.7994,3.8005,3.7992,3.805,3.8063,3.8114,3.8129,3.8141,3.8151,3.8133,3.8201,3.8208,3.8214,3.8235,3.8244,3.8143,3.8143,3.8143,3.8142,0,3.7909,3.7938,3.7964,3.7992,3.801,3.8044,3.8049,3.8068,3.8066,3.8072,3.8114,3.813,3.8159,3.8171,3.8169,3.8222,3.8214,3.8201,3.8176,3.8224,3.8245,3.8253,3.8146,3.8145,3.8145,3.8144,0,0,3.7978,3.8006,3.8015,3.8028,3.8051,3.8074,3.8108,3.8136,3.8153,3.8173,3.8202,3.8242,3.8231,3.8246,3.8246,3.827,3.832,3.8255,3.8255,3.8267,3.838,3.8389,3.8399,3.8314,3.8316,3.8317,3.8378,0,3.8034,3.8092,3.8094,3.8147,3.8175,3.8166,3.8196,3.8214,3.8221,3.8246,3.8254,3.8283,3.8265,3.8275,3.8299,3.8308,3.8342,3.8304,3.8342,3.8343,3.8337,3.841,3.842,3.8477,3.8386,3.8387,3.8388,0,3.8107,3.813,3.8187,3.8207,3.8218,3.8245,3.8271,3.8295,3.8316,3.832,3.8338,3.8335,3.837,3.8345,3.8394,3.8368,3.8384,3.8391,3.8394,3.8397,3.8368,3.8415,3.8495,3.8503,3.8401,3.84,3.8399,0,3.8152,3.8197,3.8237,3.8249,3.8273,3.8292,3.8303,3.8322,3.8339,3.8363,3.8374,3.8402,3.8417,3.8439,3.8443,3.8424,3.8493,3.8468,3.8498,3.8498,3.8512,3.8511,3.8596,3.8522,3.8522,3.8522,3.8522,0,3.8215,3.825,3.8258,3.8283,3.8322,3.8324,3.8363,3.8373,3.839,3.8417,3.8411,3.8437,3.8441,3.8468,3.8472,3.8513,3.8519,3.8524,3.8525,3.8525,3.8524,3.8535,3.8531,3.8524,3.8524,3.8523,3.8523,0,3.8272,3.8279,3.8322,3.8341,3.8347,3.8376,3.8393,3.8417,3.8424,3.8458,3.8467,3.8478,3.8509,3.8516,3.8553,3.8556,3.8605,3.8601,3.8598,3.8598,3.8627,3.8625,3.8721,3.8735,3.8652,3.8653,3.8654,0,3.8312,3.8339,3.8361,3.8379,3.8391,3.8419,3.8437,3.844,3.8459,3.8485,3.8507,3.8537,3.8562,3.8613,3.8625,3.8654,3.8652,3.8684,3.8656,3.8655,3.8653,3.8651,3.8654,3.8689,3.869,3.869,3.8691,0,3.8382,3.8384,3.841,3.8437,3.8458,3.848,3.85,3.8515,3.8521,3.8543,3.8575,3.8595,3.8633,3.8664,3.8693,3.8706,3.87,3.87,3.8708,3.8709,3.8706,3.8708,3.8613,3.8697,3.8697,3.8696,3.8696,3.8696,3.8432,3.8456,3.8476,3.8505,3.8521,3.854,3.8564,3.8575,3.8601,3.8633,3.8633,3.8668,3.869,3.8728,3.8742,3.8771,3.8761,3.8773,3.8776,3.8779,3.8782,3.8701,3.8776,3.8776,3.8775,3.8775,3.8775,0,3.8502,3.8515,3.8542,3.8571,3.8594,3.8586,3.8609,3.8629,3.866,3.868,3.8705,3.8742,3.8773,3.8788,3.8818,3.8838,3.8836,3.8846,3.8844,3.8848,3.8789,3.8779,3.8847,3.8847,3.8847,3.8847,3.8847,3.8847,3.8542,3.8582,3.8587,3.8635,3.8648,3.8682,3.8696,3.8714,3.873,3.8772,3.8798,3.8807,3.8825,3.8857,3.8885,3.8889,3.89,3.8912,3.8914,3.8859,3.8852,3.8845,3.8835,3.8914,3.8914,3.8971,3.8971,3.8971]}]]